Miscellaneous Local Product
Issued by NWS North Platte, NE

Home | Current Version | Previous Version | Text Only | Print | Product List | Glossary On
Versions: 1 2 3 4 5 6 7 8 9 10 11 12 13 14 15 16 17 18 19 20 21 22 23 24 25 26 27 28 29 30 31 32 33 34 35 36 37 38 39 40 41 42 43 44 45 46 47 48 49 50
000
AXUS43 KLBF 280310
MISLBF


WESTERN AND NORTH CENTRAL NEBRASKA HOURLY WEATHER ROUNDUP
NATIONAL WEATHER SERVICE NORTH PLATTE NE
900 PM CST THU NOV 27 2014

***STATIONS NOT REPORTING VARIABLES SUCH AS SKY/WEATHER OR
PRESSURE ARE PROVIDED BY THE NEBRASKA DEPARTMENT OF
ROADS...RAWS...AND APRS NETWORKS...AND ARE NOT UNDER
NATIONAL WEATHER SERVICE QUALITY CONTROL***

...OBSERVATIONS IN AND NEAR THE EASTERN PANHANDLE OF NEBRASKA...

CITY           SKY/WX    TMP DP  RH WIND       PRES   REMARKS
PINE RIDGE     CLEAR     41  30  65 W6        29.93S
CHADRON        CLEAR    N/A N/A N/A SW3       29.95S
ALLIANCE       CLEAR     34  26  72 W14       29.97S WCI  25
SIDNEY         CLEAR     36  26  67 W12       30.03S WCI  28
WHITECLAY        N/A     51  29  43 W13         N/A
CRESCENT LAKE    N/A     44  27  51 W8          N/A
LISCO            N/A     32  27  80 W6          N/A  WCI  26
BIG SPRINGS      N/A     37  33  85 SW12        N/A  WCI  29
$$

...OBSERVATIONS IN NORTH CENTRAL NEBRASKA...

CITY           SKY/WX    TMP DP  RH WIND       PRES   REMARKS
VALENTINE      CLEAR     39  26  59 SW14      29.90F WCI  31
THEDFORD       CLEAR     39  25  57 S8        29.96F WCI  33
AINSWORTH      CLEAR     36  22  57 S18G24    29.92F WCI  25
O`NEILL        CLEAR     30  20  67 S14       30.00F WCI  19
ORD            CLEAR     28  17  63 SE6       30.04F WCI  22
BROKEN BOW     CLEAR     28  19  69 SE6       30.00F WCI  22
BROWNLEE         N/A     37  21  52 S12         N/A  WCI  30
SPRINGVIEW       N/A     34  22  62 CALM        N/A
BREWSTER         N/A     35  22  60 S7          N/A  WCI  29
SARGENT          N/A     28  19  69 CALM        N/A
COMSTOCK         N/A     32  21  64 CALM        N/A
CHAMBERS         N/A     28  15  57 S12         N/A  WCI  18
$$

...OBSERVATIONS IN SOUTHWEST NEBRASKA AND FAR NORTHEAST COLORADO...

CITY           SKY/WX    TMP DP  RH WIND       PRES   REMARKS
WRAY           FAIR      43  30  60 W10       30.04S
HOLYOKE        FAIR      37  32  81 W8        30.03S WCI  31
IMPERIAL       CLEAR     42  27  55 W13       30.00F
OGALLALA       CLEAR     32  30  91 W6        30.00S WCI  27
NORTH PLATTE   CLEAR     29  20  69 CALM      29.99F
MCCOOK         CLEAR     41  26  55 SW10      29.98F
LEXINGTON      CLEAR     35  22  60 SE6       30.00F WCI  30
PAXTON           N/A     30  24  77 CALM        N/A
BRADY            N/A     28  19  67 CALM        N/A
GOTHENBURG       N/A     31  19  60 CALM        N/A
CALLAWAY         N/A     29  21  71 S6          N/A  WCI  23
$$

...NORTH PLATTE AREA...

CITY           SKY/WX    TMP DP  RH WIND       PRES   REMARKS
AIRPORT        CLEAR     29  20  69 CALM      29.99F
DOWNTOWN         N/A     35  24  63 CALM        N/A
$$

...SOME WEATHER OBSERVATIONS FROM AROUND THE REGION...

CITY           SKY/WX    TMP DP  RH WIND       PRES   REMARKS
DENVER         MOCLDY    52  19  27 W9        30.10F
LARAMIE        PTCLDY    39  20  46 SW13      30.18F WCI  31
CHEYENNE       CLEAR     49  21  33 W35G41    30.07F
SCOTTSBLUFF    CLEAR     37  28  70 CALM      29.99S
RAPID CITY     CLEAR     28  24  85 CALM      29.87S
PIERRE         CLOUDY    26  17  68 SE12      29.89F WCI  16
WINNER         CLOUDY    37  22  54 S16G25    29.87F WCI  28
SIOUX FALLS    CLOUDY    14   7  73 SE13      30.11F WCI   0
OMAHA          CLEAR     22  14  71 SE12      30.23F WCI  10
GRAND ISLAND   CLEAR     31  17  56 SE12      30.07F WCI  22
KANSAS CITY    PTCLDY    28  22  78 SE8       30.31S WCI  20
WICHITA        PTCLDY    40  20  44 S18       30.20F WCI  31
HAYS           CLEAR     37  18  44 S12       30.08F WCI  30
LIBERAL        CLEAR     43  27  52 S14       30.13F
GOODLAND       MOCLDY    48  28  46 W13       30.05F
$$



USA.gov is the U.S. government's official web portal to all federal, state and local government web resources and services.